This is the latest recevied weather packets stored in our database for station/object F5MAP-5. If no packets are shown the sender has not sent any weather packets the latest 10 day(s).
| Time | Temp. | Humidity | Pressure | Rain* | Wind** | Luminosity | Snow |
|---|---|---|---|---|---|---|---|
| 1787905932 | 20° C | 93% | 1011.4 hPa | 0.76 mm | - | 221 W/m² | - |
| 1787905332 | 20° C | 92% | 1011.4 hPa | 2.29 mm | - | 46 W/m² | - |
| 1787904732 | 20° C | 92% | 1011.5 hPa | 3.56 mm | - | 63 W/m² | - |
| 1787904132 | 20° C | 92% | 1010.9 hPa | 3.81 mm | - | 37 W/m² | - |
| 1787903532 | 20° C | 91% | 1010.6 hPa | 3.81 mm | - | 53 W/m² | - |
| 1787902932 | 20° C | 91% | 1009.6 hPa | 4.57 mm | - | 26 W/m² | - |
| 1787902332 | 20.56° C | 90% | 1010.9 hPa | 3.81 mm | - | 5 W/m² | - |
| 1787901732 | 20.56° C | 90% | 1011 hPa | 2.29 mm | - | 0 W/m² | - |
| 1787901132 | 20.56° C | 90% | 1010.1 hPa | 1.02 mm | - | 0 W/m² | - |
| 1787900532 | 20.56° C | 89% | 1009.4 hPa | 1.02 mm | - | 0 W/m² | - |
| 1787899932 | 20.56° C | 89% | 1009.3 hPa | 0.51 mm | - | 0 W/m² | - |
| 1787899332 | 20.56° C | 89% | 1009.4 hPa | 0 mm | - | 0 W/m² | - |
| 1787898732 | 20.56° C | 89% | 1009.5 hPa | 0 mm | - | 5 W/m² | - |
| 1787898132 | 20.56° C | 89% | 1009.2 hPa | 0 mm | - | 16 W/m² | - |
| 1787897532 | 20.56° C | 89% | 1009.1 hPa | 0 mm | - | 16 W/m² | - |
| 1787896932 | 20.56° C | 89% | 1008.8 hPa | 0 mm | - | 49 W/m² | - |
| 1787896332 | 20.56° C | 89% | 1009.7 hPa | 0 mm | - | 62 W/m² | - |
| 1787895732 | 20.56° C | 89% | 1009.8 hPa | 0 mm | - | 42 W/m² | - |
| 1787895132 | 20° C | 89% | 1009.9 hPa | 0 mm | - | 39 W/m² | - |
| 1787893932 | 20° C | 89% | 1010.4 hPa | 0 mm | - | 19 W/m² | - |
| 1787893331 | 20° C | 89% | 1010.1 hPa | 0 mm | - | 12 W/m² | - |
| 1787892732 | 20° C | 89% | 1010.4 hPa | 0 mm | - | 12 W/m² | - |
| 1787892131 | 20° C | 88% | 1010 hPa | 0 mm | - | 0 W/m² | - |
| 1787891531 | 20.56° C | 88% | 1010.2 hPa | 0 mm | - | 0 W/m² | - |
| 1787890932 | 20.56° C | 88% | 1010.6 hPa | 0 mm | - | 0 W/m² | - |
* Rain latest hour (hover to see other rain measurements)
** Current wind speed in m/s (hover to see current wind gust speed)